This demonstration page uses our WeatherBlox Daily Observations layout. Learn more.

Left ArrowRight Arrow

Hourly Observations for January 27, 2016

Temp ( °F °C ) Dew Point ( °F °C ) Humidity (%) Winds ( mph kmh ) Pressure ( in mb ) Visibility ( mi km ) Precip ( " mm )
12:59 am 00:59 Cloudy 56 13.3 45 7.2 67 67 SSW 8 13 30.04 1017 10 16 0.00 0.00
1:59 am 01:59 Cloudy 56 13.3 45 7.2 67 67 SSW 9 15 30.03 1017 10 16 0.00 0.00
2:59 am 02:59 Cloudy 54 12.2 46 7.8 75 75 SW 8 13 30.02 1017 10 16 0.00 0.00
3:59 am 03:59 Mostly Cloudy 54 12.2 46 7.8 75 75 WSW 7 11 30.02 1017 10 16 0.00 0.00
4:59 am 04:59 Mostly Cloudy 53 11.7 45 7.2 74 74 W 5 7 30.02 1017 10 16 0.00 0.00
5:59 am 05:59 Cloudy 51 10.6 44 6.7 77 77 W 5 7 30.04 1017 10 16 0.00 0.00
6:59 am 06:59 Cloudy 50 10 43 6.1 77 77 NW 9 15 30.06 1018 9 14 0.00 0.00
7:59 am 07:59 Cloudy 48 8.9 42 5.6 80 80 N 10 17 30.11 1020 7 11 0.00 0.03
8:59 am 08:59 Cloudy with Light Rain 43 6.1 38 3.3 82 82 NE 14 22 30.16 1022 6 10 0.02 0.51
9:15 am 09:15 Cloudy with Light Rain 43 6.1 38 3.3 82 82 NNE 14 22 30.18 1022 5 8 0.00 0.03
9:59 am 09:59 Cloudy 42 5.6 36 2.2 79 79 NNE 17 28 30.19 1022 7 11 0.01 0.25
10:59 am 10:59 Cloudy with Light Rain 41 5 35 1.7 79 79 NNE 14 22 30.19 1022 5 8 0.01 0.25
11:50 am 11:50 Cloudy 41 5 36 2.2 82 82 NE 12 19 30.21 1023 8 13 0.01 0.25
11:59 am 11:59 Cloudy 42 5.6 36 2.2 79 79 NNE 9 15 30.21 1023 7 11 0.01 0.25
12:59 pm 12:59 Cloudy 41 5 34 1.1 76 76 NNE 10 17 30.19 1022 8 13 0.00 0.00
1:59 pm 13:59 Mostly Cloudy 42 5.6 32 0 68 68 NNE 13 20 30.17 1022 10 16 0.00 0.00
2:59 pm 14:59 Mostly Cloudy 42 5.6 32 0 68 68 NNE 12 19 30.16 1021 10 16 0.00 0.00
3:59 pm 15:59 Mostly Cloudy 43 6.1 31 -0.6 63 63 NNE 12 19 30.15 1021 10 16 0.00 0.00
4:59 pm 16:59 Mostly Cloudy 40 4.4 31 -0.6 70 70 N 9 15 30.15 1021 10 16 0.00 0.00
5:59 pm 17:59 Mostly Cloudy 39 3.9 31 -0.6 73 73 NE 7 11 30.15 1021 10 16 0.00 0.00
6:59 pm 18:59 Mostly Cloudy 38 3.3 30 -1.1 73 73 NE 5 7 30.17 1022 10 16 0.00 0.00
7:59 pm 19:59 Clear 39 3.9 29 -1.7 67 67 NE 5 7 30.19 1022 9 14 0.00 0.00
8:59 pm 20:59 Mostly Cloudy 39 3.9 29 -1.7 67 67 ENE 5 7 30.18 1022 10 16 0.00 0.00
9:59 pm 21:59 Mostly Cloudy 39 3.9 29 -1.7 67 67 NE 6 9 30.17 1022 10 16 0.00 0.00
10:59 pm 22:59 Clear 39 3.9 28 -2.2 65 65 NE 7 11 30.16 1022 10 16 0.00 0.00
11:59 pm 23:59 Mostly Cloudy 37 2.8 28 -2.2 70 70 NE 6 9 30.16 1021 10 16 0.00 0.00

Powered by AerisWeather